GFSFLT2_500_temp_015.txt.gz
Temp
-17 -18 -18 -18 -18 -18 -17 -17 -17 -17 -17 -17 -17 -17 -18 -19 -21 -22 -23 -23 -24 -25 -25 -25 -25 -25 -24
-18 -18 -18 -18 -18 -18 -18 -18 -18 -18 -18 -19 -20 -21 -22 -23 -24 -24 -25 -25 -25 -25 -25 -25 -24 -25 -25
-18 -18 -18 -18 -18 -18 -18 -18 -19 -20 -21 -22 -23 -23 -24 -24 -24 -24 -25 -25 -25 -25 -25 -25 -25 -25 -25
-18 -18 -18 -18 -18 -18 -18 -20 -23 -24 -24 -24 -24 -24 -24 -24 -24 -25 -25 -25 -25 -25 -25 -25 -25 -25 -25
-18 -18 -18 -18 -18 -19 -22 -23 -25 -25 -24 -25 -25 -25 -25 -25 -24 -24 -24 -25 -25 -25 -25 -25 -25 -25 -24
-18 -19 -18 -19 -21 -23 -24 -24 -25 -26 -26 -26 -26 -26 -26 -26 -25 -24 -24 -25 -25 -25 -25 -25 -25 -25 -25
-18 -19 -20 -23 -24 -24 -25 -26 -26 -27 -27 -27 -28 -27 -27 -27 -26 -25 -24 -25 -25 -25 -24 -24 -25 -25 -25
-20 -21 -24 -24 -25 -25 -26 -26 -27 -27 -28 -27 -28 -28 -28 -28 -27 -25 -25 -25 -25 -25 -25 -25 -25 -25 -26
-23 -24 -25 -25 -26 -26 -27 -27 -28 -28 -29 -29 -29 -29 -29 -29 -28 -27 -25 -25 -25 -25 -25 -25 -25 -25 -26
-25 -25 -26 -26 -27 -27 -28 -28 -28 -29 -29 -29 -29 -29 -29 -30 -30 -28 -26 -25 -25 -26 -26 -26 -26 -25 -26
-25 -25 -26 -27 -27 -28 -28 -29 -29 -30 -30 -30 -29 -29 -29 -30 -30 -30 -28 -26 -25 -26 -26 -26 -26 -26 -26
-25 -26 -27 -27 -28 -29 -29 -30 -30 -30 -30 -30 -29 -29 -29 -30 -30 -30 -29 -27 -26 -26 -26 -26 -26 -26 -26
-26 -26 -27 -28 -28 -29 -30 -30 -31 -31 -31 -30 -29 -29 -29 -29 -29 -30 -29 -28 -26 -26 -26 -26 -26 -26 -26
-26 -27 -27 -28 -29 -30 -30 -31 -31 -31 -31 -30 -30 -29 -29 -29 -29 -29 -28 -28 -27 -26 -26 -26 -26 -26 -26
-26 -27 -28 -29 -30 -30 -31 -31 -31 -30 -30 -30 -30 -29 -29 -28 -28 -27 -27 -27 -26 -26 -26 -26 -27 -27 -26
-27 -27 -28 -29 -30 -30 -30 -30 -30 -30 -29 -29 -29 -29 -28 -27 -26 -27 -27 -27 -27 -27 -26 -26 -26 -27 -27
-27 -28 -28 -29 -29 -28 -28 -29 -29 -29 -28 -28 -28 -27 -28 -27 -25 -25 -26 -27 -27 -27 -26 -25 -25 -26 -26

GFSFLT2_500_temp_021.txt.gz
Temp
-17 -17 -17 -18 -18 -18 -18 -18 -19 -19 -19 -18 -19 -19 -19 -18 -18 -18 -18 -18 -18 -18 -19 -20 -20 -21 -21
-18 -18 -18 -18 -18 -19 -19 -19 -19 -19 -19 -19 -19 -19 -19 -19 -19 -19 -20 -22 -23 -23 -23 -23 -23 -24 -23
-18 -19 -19 -19 -19 -19 -19 -19 -19 -19 -20 -19 -19 -19 -19 -20 -22 -23 -24 -24 -24 -24 -24 -24 -24 -24 -24
-19 -19 -19 -19 -19 -19 -19 -20 -20 -20 -20 -20 -20 -21 -23 -24 -25 -25 -25 -25 -25 -25 -25 -25 -26 -25 -25
-19 -20 -20 -20 -20 -20 -20 -20 -20 -20 -20 -22 -23 -25 -25 -25 -26 -26 -26 -26 -26 -27 -27 -27 -27 -27 -26
-20 -20 -20 -20 -21 -20 -20 -20 -20 -22 -23 -25 -25 -25 -26 -26 -27 -28 -28 -28 -28 -28 -28 -28 -28 -28 -27
-20 -20 -21 -21 -21 -21 -21 -21 -22 -23 -25 -25 -25 -26 -27 -28 -29 -29 -29 -29 -29 -29 -29 -29 -29 -29 -28
-21 -21 -21 -21 -21 -21 -21 -22 -25 -25 -25 -25 -26 -26 -28 -29 -30 -31 -31 -30 -30 -30 -30 -30 -30 -30 -29
-22 -22 -22 -22 -22 -22 -24 -25 -25 -25 -26 -25 -27 -27 -28 -30 -31 -31 -31 -31 -31 -30 -30 -30 -30 -30 -29
-23 -22 -22 -22 -23 -25 -25 -25 -25 -25 -26 -26 -27 -28 -28 -30 -31 -31 -31 -31 -31 -30 -30 -30 -30 -30 -29
-23 -23 -23 -24 -26 -26 -26 -26 -25 -26 -26 -26 -27 -28 -28 -28 -29 -30 -30 -30 -30 -30 -29 -29 -30 -30 -29
-23 -24 -25 -26 -26 -26 -26 -26 -26 -26 -26 -25 -26 -27 -27 -28 -28 -29 -29 -29 -29 -29 -29 -29 -29 -29 -28
-25 -26 -26 -26 -26 -26 -26 -26 -27 -26 -26 -25 -26 -26 -26 -26 -27 -28 -28 -29 -28 -28 -28 -28 -29 -28 -27
-27 -27 -26 -27 -26 -26 -27 -27 -27 -27 -26 -26 -26 -26 -26 -26 -26 -26 -27 -27 -27 -27 -27 -27 -27 -27 -27
-27 -27 -27 -26 -27 -27 -27 -27 -26 -26 -27 -27 -26 -26 -26 -26 -25 -26 -26 -27 -26 -27 -27 -27 -26 -26 -26
-27 -26 -26 -26 -27 -27 -27 -27 -26 -26 -26 -26 -26 -27 -27 -27 -26 -25 -26 -27 -27 -27 -26 -26 -27 -26 -25
-27 -26 -26 -27 -27 -27 -27 -27 -27 -26 -26 -25 -26 -26 -26 -26 -27 -26 -25 -25 -26 -26 -26 -26 -26 -27 -25

GFSFLT2_500_temp_027.txt.gz
Temp
-16 -17 -17 -17 -17 -17 -17 -17 -17 -17 -18 -18 -18 -18 -18 -18 -19 -19 -19 -19 -19 -19 -19 -19 -19 -19 -19
-16 -17 -17 -17 -17 -17 -17 -18 -18 -18 -18 -18 -19 -19 -19 -19 -19 -19 -19 -19 -19 -19 -19 -19 -20 -20 -20
-16 -17 -17 -17 -17 -18 -18 -18 -19 -19 -19 -19 -19 -20 -20 -20 -20 -20 -20 -20 -20 -20 -21 -21 -21 -22 -23
-17 -17 -17 -17 -18 -18 -19 -19 -19 -20 -20 -20 -20 -21 -21 -21 -21 -21 -21 -21 -21 -22 -22 -23 -24 -24 -25
-18 -18 -17 -18 -18 -18 -19 -19 -20 -20 -20 -21 -21 -22 -22 -22 -22 -22 -22 -23 -23 -24 -24 -24 -25 -26 -27
-17 -19 -18 -18 -18 -18 -18 -19 -20 -21 -21 -22 -23 -23 -23 -23 -24 -24 -25 -25 -24 -24 -24 -25 -26 -27 -28
-19 -18 -18 -18 -18 -19 -20 -20 -21 -22 -22 -22 -23 -24 -25 -25 -26 -26 -25 -25 -24 -24 -25 -25 -26 -27 -28
-18 -18 -18 -18 -19 -19 -20 -21 -22 -23 -23 -23 -25 -26 -26 -27 -27 -26 -25 -24 -24 -24 -25 -25 -26 -27 -27
-18 -18 -19 -19 -20 -21 -22 -22 -23 -25 -26 -25 -26 -26 -26 -27 -26 -26 -25 -25 -25 -25 -25 -25 -26 -26 -27
-20 -20 -20 -21 -22 -23 -24 -24 -25 -26 -26 -26 -27 -26 -26 -28 -27 -26 -25 -25 -25 -25 -25 -25 -26 -27 -27
-21 -21 -22 -23 -24 -25 -25 -25 -26 -26 -26 -25 -26 -26 -26 -26 -28 -26 -26 -26 -26 -26 -26 -26 -26 -26 -27
-22 -24 -25 -25 -25 -25 -26 -26 -26 -26 -26 -26 -25 -25 -25 -25 -25 -26 -25 -26 -26 -26 -26 -27 -26 -26 -27
-24 -25 -25 -25 -26 -26 -26 -26 -26 -26 -26 -25 -25 -25 -25 -25 -25 -25 -25 -26 -26 -26 -26 -26 -26 -26 -26
-25 -25 -25 -25 -26 -26 -26 -26 -27 -27 -26 -26 -25 -25 -25 -25 -24 -25 -25 -25 -25 -26 -26 -26 -26 -26 -26
-26 -26 -26 -26 -26 -26 -26 -26 -26 -27 -27 -27 -26 -26 -26 -25 -25 -26 -25 -26 -26 -26 -26 -26 -26 -26 -26
-26 -27 -27 -27 -27 -27 -27 -26 -27 -27 -27 -27 -26 -26 -26 -26 -26 -25 -25 -25 -26 -26 -26 -26 -26 -26 -25
-27 -27 -27 -27 -27 -27 -27 -27 -27 -27 -27 -26 -26 -25 -25 -25 -26 -25 -24 -25 -25 -26 -25 -26 -26 -26 -26

GFSFLT2_500_temp_030.txt.gz
Temp
-15 -16 -16 -16 -16 -16 -16 -16 -16 -16 -17 -17 -17 -17 -16 -17 -17 -17 -18 -18 -18 -18 -18 -18 -18 -18 -18
-16 -16 -16 -17 -16 -16 -16 -16 -17 -17 -17 -17 -17 -17 -17 -18 -17 -18 -18 -18 -19 -19 -19 -19 -19 -20 -20
-16 -16 -17 -16 -17 -17 -17 -17 -17 -18 -18 -17 -18 -18 -18 -18 -18 -19 -19 -20 -20 -20 -21 -21 -21 -21 -21
-16 -17 -17 -16 -17 -17 -18 -18 -18 -19 -19 -19 -19 -18 -19 -19 -19 -20 -21 -21 -21 -21 -22 -22 -22 -22 -22
-17 -17 -17 -18 -18 -18 -18 -19 -19 -18 -19 -19 -19 -20 -20 -20 -21 -22 -22 -22 -22 -23 -23 -23 -24 -24 -25
-18 -18 -18 -18 -19 -18 -18 -18 -18 -19 -18 -19 -20 -21 -21 -22 -22 -22 -23 -24 -24 -25 -25 -25 -25 -25 -25
-18 -18 -18 -18 -18 -18 -18 -19 -19 -19 -19 -20 -21 -22 -23 -24 -25 -26 -26 -25 -25 -25 -25 -25 -25 -25 -25
-18 -17 -18 -18 -18 -19 -20 -20 -20 -21 -20 -22 -23 -24 -25 -27 -27 -26 -26 -25 -25 -25 -25 -25 -25 -25 -25
-18 -18 -19 -20 -21 -21 -21 -21 -22 -23 -24 -25 -25 -25 -26 -27 -27 -26 -26 -25 -25 -25 -25 -25 -25 -25 -25
-20 -21 -22 -22 -22 -23 -23 -24 -25 -25 -25 -25 -26 -26 -26 -28 -27 -26 -26 -25 -25 -25 -25 -25 -25 -25 -25
-23 -23 -23 -24 -24 -24 -24 -25 -25 -25 -25 -25 -26 -26 -26 -26 -28 -27 -26 -26 -25 -25 -25 -25 -25 -25 -25
-23 -24 -24 -24 -25 -25 -25 -25 -25 -25 -25 -25 -26 -26 -26 -26 -27 -27 -26 -26 -25 -25 -25 -26 -26 -26 -26
-24 -25 -25 -25 -25 -26 -26 -26 -26 -26 -26 -25 -26 -26 -26 -26 -25 -26 -25 -26 -25 -26 -26 -26 -26 -26 -26
-25 -25 -26 -26 -26 -26 -27 -27 -27 -26 -26 -26 -26 -26 -26 -26 -25 -25 -25 -25 -25 -25 -25 -26 -25 -26 -26
-26 -26 -26 -27 -27 -27 -27 -27 -27 -27 -27 -26 -26 -26 -26 -26 -26 -25 -25 -25 -25 -25 -25 -26 -26 -26 -25
-26 -27 -27 -27 -27 -27 -27 -27 -27 -27 -27 -26 -26 -26 -26 -26 -26 -27 -26 -25 -25 -25 -25 -25 -26 -26 -26
-26 -27 -27 -27 -27 -28 -28 -28 -28 -27 -27 -27 -26 -26 -26 -26 -27 -25 -25 -25 -25 -26 -25 -25 -26 -26 -26

GFSFLT2_500_temp_033.txt.gz
Temp
-15 -16 -16 -16 -16 -16 -16 -16 -16 -16 -16 -16 -16 -16 -16 -17 -17 -17 -17 -17 -17 -17 -17 -17 -17 -17 -17
-16 -16 -16 -16 -16 -16 -16 -16 -17 -16 -16 -16 -16 -16 -16 -17 -17 -17 -18 -18 -18 -17 -17 -17 -18 -18 -18
-17 -16 -16 -16 -17 -17 -16 -17 -17 -17 -17 -17 -17 -17 -18 -18 -17 -17 -17 -17 -17 -17 -18 -18 -18 -19 -20
-16 -16 -17 -17 -17 -17 -17 -17 -18 -18 -18 -18 -18 -18 -17 -17 -17 -18 -18 -18 -18 -18 -19 -20 -20 -21 -21
-17 -17 -17 -17 -17 -18 -19 -18 -18 -18 -17 -17 -17 -17 -18 -18 -18 -18 -19 -19 -20 -20 -21 -21 -22 -23 -23
-17 -17 -18 -18 -19 -19 -18 -18 -17 -18 -18 -18 -18 -19 -19 -20 -20 -20 -20 -21 -21 -22 -23 -24 -25 -25 -25
-18 -19 -19 -18 -18 -18 -18 -18 -19 -20 -20 -21 -21 -21 -21 -21 -22 -23 -23 -24 -24 -24 -24 -25 -25 -25 -25
-19 -18 -18 -18 -19 -19 -20 -21 -22 -22 -22 -23 -22 -23 -25 -25 -25 -25 -24 -24 -24 -24 -25 -25 -24 -24 -25
-18 -18 -18 -19 -20 -22 -23 -23 -23 -24 -24 -24 -24 -24 -25 -25 -25 -25 -25 -25 -24 -24 -24 -24 -24 -25 -25
-19 -19 -20 -22 -23 -23 -24 -24 -24 -25 -24 -25 -25 -25 -25 -26 -26 -26 -26 -25 -25 -25 -24 -24 -24 -24 -24
-19 -21 -23 -24 -24 -24 -25 -25 -25 -25 -25 -25 -26 -26 -26 -26 -27 -27 -26 -26 -26 -26 -25 -25 -25 -25 -25
-23 -24 -24 -24 -25 -25 -25 -26 -26 -26 -26 -26 -26 -26 -26 -26 -26 -27 -27 -27 -26 -25 -25 -25 -25 -25 -25
-24 -24 -24 -25 -25 -26 -26 -26 -26 -26 -26 -26 -26 -26 -26 -26 -26 -26 -26 -27 -26 -25 -25 -25 -25 -25 -25
-24 -24 -25 -25 -26 -26 -26 -26 -27 -27 -27 -27 -26 -26 -26 -26 -26 -26 -26 -26 -26 -25 -25 -25 -25 -25 -25
-25 -25 -25 -26 -26 -26 -27 -27 -27 -27 -28 -27 -27 -27 -26 -26 -26 -26 -26 -26 -25 -25 -25 -25 -25 -25 -25
-25 -26 -26 -26 -26 -26 -27 -27 -27 -28 -28 -28 -27 -27 -27 -27 -26 -27 -27 -26 -26 -25 -25 -25 -25 -25 -25
-26 -26 -26 -26 -26 -27 -27 -27 -28 -28 -28 -28 -28 -27 -27 -26 -27 -27 -27 -26 -25 -25 -25 -25 -25 -26 -26

GFSFLT2_500_temp_036.txt.gz
Temp
-15 -15 -15 -15 -16 -16 -16 -17 -17 -16 -16 -16 -16 -16 -17 -16 -16 -16 -16 -16 -16 -16 -15 -16 -16 -16 -16
-16 -16 -16 -16 -17 -17 -17 -17 -16 -16 -17 -17 -17 -16 -16 -16 -16 -16 -16 -16 -17 -17 -16 -16 -17 -17 -17
-17 -16 -16 -16 -18 -17 -17 -16 -17 -17 -17 -17 -17 -17 -17 -18 -18 -17 -17 -17 -17 -17 -17 -17 -17 -17 -17
-17 -18 -17 -17 -17 -17 -17 -17 -18 -18 -18 -18 -18 -18 -18 -18 -18 -17 -17 -17 -17 -17 -17 -17 -18 -18 -18
-17 -17 -17 -17 -18 -18 -18 -18 -18 -18 -18 -18 -18 -18 -18 -18 -18 -18 -18 -18 -18 -18 -19 -19 -20 -20 -21
-17 -18 -18 -19 -19 -19 -19 -18 -18 -18 -18 -19 -19 -20 -20 -20 -21 -21 -21 -21 -21 -21 -21 -22 -23 -23 -24
-19 -19 -19 -19 -19 -18 -18 -19 -19 -19 -19 -21 -21 -22 -22 -23 -23 -23 -23 -23 -23 -23 -23 -23 -24 -25 -25
-19 -19 -19 -19 -19 -19 -19 -20 -21 -21 -22 -23 -23 -23 -24 -24 -24 -24 -24 -24 -24 -24 -24 -25 -25 -25 -25
-19 -19 -19 -19 -19 -20 -20 -22 -23 -24 -23 -23 -24 -24 -25 -26 -25 -25 -25 -25 -25 -25 -25 -25 -24 -24 -24
-20 -20 -20 -20 -20 -21 -22 -24 -24 -24 -24 -24 -25 -24 -25 -27 -26 -26 -26 -26 -25 -25 -25 -25 -24 -24 -24
-20 -20 -20 -20 -21 -22 -23 -24 -24 -25 -25 -25 -26 -26 -26 -26 -28 -27 -27 -26 -26 -26 -26 -26 -25 -24 -24
-20 -21 -21 -21 -22 -24 -24 -24 -25 -25 -26 -26 -26 -26 -27 -27 -27 -28 -27 -27 -26 -26 -26 -26 -26 -25 -24
-21 -21 -21 -22 -24 -25 -25 -25 -25 -26 -26 -26 -26 -27 -27 -27 -27 -27 -26 -27 -26 -26 -26 -26 -25 -25 -25
-21 -22 -23 -25 -25 -25 -25 -26 -26 -26 -26 -26 -27 -27 -27 -27 -27 -27 -27 -26 -26 -26 -26 -26 -25 -25 -25
-22 -24 -25 -26 -26 -26 -26 -26 -27 -27 -27 -27 -27 -27 -27 -27 -27 -27 -26 -26 -26 -26 -26 -25 -26 -25 -24
-24 -26 -27 -27 -27 -27 -27 -27 -27 -27 -27 -28 -28 -27 -28 -28 -27 -27 -27 -26 -26 -26 -26 -26 -26 -26 -25
-26 -27 -27 -27 -27 -27 -27 -27 -28 -28 -28 -28 -28 -28 -28 -28 -28 -28 -27 -26 -26 -26 -26 -26 -25 -25 -25

GFSFLT2_500_temp_039.txt.gz
Temp
-17 -17 -17 -16 -17 -16 -16 -16 -16 -16 -17 -17 -17 -17 -17 -17 -16 -16 -16 -16 -16 -16 -16 -16 -16 -16 -15
-18 -17 -17 -17 -17 -17 -17 -17 -17 -16 -17 -18 -18 -17 -17 -17 -17 -17 -16 -16 -16 -16 -16 -16 -16 -16 -16
-18 -18 -18 -18 -18 -18 -18 -18 -18 -18 -18 -18 -17 -17 -18 -18 -18 -18 -18 -17 -17 -17 -17 -17 -17 -17 -17
-19 -18 -18 -18 -18 -18 -18 -19 -18 -18 -18 -18 -19 -19 -18 -18 -18 -18 -18 -18 -18 -18 -18 -18 -18 -18 -17
-19 -18 -18 -19 -19 -19 -19 -19 -19 -19 -19 -19 -19 -19 -19 -19 -19 -19 -19 -19 -19 -19 -18 -19 -19 -19 -19
-19 -19 -19 -19 -19 -19 -19 -19 -19 -19 -19 -19 -19 -20 -20 -20 -20 -20 -21 -21 -22 -22 -22 -22 -23 -23 -23
-19 -19 -19 -19 -19 -19 -19 -19 -19 -19 -19 -20 -20 -21 -21 -22 -22 -23 -23 -23 -23 -24 -24 -24 -24 -24 -24
-19 -19 -19 -19 -19 -20 -20 -20 -20 -20 -20 -21 -21 -22 -23 -23 -24 -24 -24 -24 -24 -25 -25 -25 -25 -25 -25
-20 -20 -19 -20 -20 -20 -20 -20 -20 -21 -21 -22 -23 -24 -24 -25 -25 -25 -25 -25 -25 -25 -25 -25 -25 -25 -25
-20 -20 -20 -20 -20 -20 -21 -21 -21 -21 -22 -23 -24 -24 -24 -26 -26 -26 -25 -25 -25 -26 -26 -26 -25 -25 -26
-20 -20 -20 -20 -21 -21 -21 -21 -22 -23 -23 -25 -25 -25 -25 -25 -27 -27 -27 -26 -27 -27 -26 -26 -26 -25 -25
-21 -21 -21 -21 -21 -21 -22 -23 -24 -25 -25 -25 -25 -25 -25 -26 -27 -28 -27 -28 -28 -27 -27 -27 -26 -26 -25
-21 -21 -22 -22 -22 -23 -24 -25 -26 -26 -26 -26 -26 -26 -26 -26 -27 -28 -27 -28 -28 -27 -27 -27 -26 -26 -26
-21 -22 -22 -23 -23 -24 -26 -27 -27 -27 -27 -27 -27 -27 -26 -27 -27 -27 -28 -28 -28 -28 -27 -27 -27 -26 -26
-22 -22 -23 -24 -25 -26 -27 -27 -27 -27 -28 -27 -27 -27 -27 -27 -27 -27 -28 -28 -28 -27 -27 -26 -26 -26 -26
-23 -23 -24 -25 -27 -27 -28 -28 -28 -28 -28 -28 -28 -28 -27 -27 -28 -28 -28 -28 -28 -27 -26 -26 -26 -27 -26
-23 -23 -25 -27 -28 -28 -29 -29 -29 -28 -28 -28 -28 -28 -28 -28 -28 -29 -28 -28 -27 -27 -27 -26 -26 -27 -26

GFSFLT2_500_temp_042.txt.gz
Temp
-19 -19 -18 -17 -18 -18 -18 -17 -17 -17 -17 -17 -17 -17 -17 -17 -17 -17 -18 -17 -17 -17 -17 -17 -16 -16 -16
-20 -19 -19 -18 -18 -18 -17 -17 -17 -17 -17 -17 -17 -17 -17 -17 -17 -18 -18 -18 -18 -18 -17 -17 -17 -16 -16
-20 -20 -19 -18 -19 -18 -18 -18 -18 -18 -17 -18 -18 -18 -18 -18 -19 -19 -18 -18 -19 -18 -18 -18 -18 -18 -17
-19 -19 -19 -19 -19 -18 -18 -18 -18 -18 -18 -18 -19 -19 -19 -19 -19 -19 -19 -19 -19 -18 -18 -18 -18 -18 -18
-19 -19 -19 -19 -19 -18 -18 -19 -19 -19 -19 -19 -20 -19 -19 -19 -19 -19 -19 -19 -19 -19 -19 -19 -19 -18 -18
-19 -19 -19 -19 -19 -19 -19 -20 -20 -20 -20 -19 -20 -20 -20 -20 -20 -20 -20 -20 -20 -20 -20 -20 -20 -21 -21
-19 -19 -19 -19 -19 -19 -19 -20 -20 -20 -20 -20 -20 -21 -21 -21 -21 -21 -21 -22 -22 -22 -23 -23 -23 -23 -23
-19 -19 -20 -20 -20 -20 -20 -20 -20 -20 -20 -20 -21 -21 -21 -21 -22 -22 -23 -23 -23 -23 -23 -24 -24 -24 -24
-20 -20 -20 -20 -20 -20 -21 -21 -21 -21 -21 -21 -21 -22 -22 -22 -23 -24 -24 -24 -24 -24 -24 -24 -25 -25 -25
-20 -20 -20 -20 -21 -21 -21 -21 -21 -21 -21 -22 -22 -23 -24 -24 -25 -25 -25 -25 -25 -24 -24 -25 -25 -25 -26
-20 -20 -20 -21 -21 -21 -21 -21 -22 -22 -22 -23 -24 -24 -25 -26 -26 -26 -26 -26 -26 -25 -25 -25 -25 -26 -26
-20 -21 -21 -21 -21 -21 -22 -22 -23 -23 -24 -25 -26 -26 -27 -27 -27 -27 -27 -27 -26 -26 -26 -26 -26 -26 -26
-21 -21 -21 -21 -21 -22 -23 -23 -24 -25 -26 -27 -27 -27 -27 -27 -27 -28 -28 -28 -27 -27 -27 -27 -27 -27 -27
-21 -21 -21 -21 -22 -23 -23 -23 -25 -27 -27 -28 -28 -28 -28 -28 -28 -28 -28 -28 -28 -28 -28 -28 -28 -28 -27
-21 -21 -21 -22 -23 -23 -23 -24 -26 -28 -29 -29 -29 -28 -28 -28 -28 -28 -28 -28 -28 -28 -28 -28 -28 -28 -28
-22 -21 -22 -23 -23 -24 -24 -24 -26 -28 -29 -29 -29 -29 -29 -29 -29 -29 -29 -29 -28 -28 -28 -28 -28 -28 -28
-22 -22 -23 -24 -24 -24 -24 -24 -26 -27 -29 -29 -29 -29 -29 -29 -29 -29 -29 -29 -28 -28 -28 -28 -28 -28 -28

GFSFLT2_500_temp_045.txt.gz
Temp
-21 -20 -21 -20 -20 -19 -19 -19 -18 -18 -18 -18 -18 -17 -17 -17 -17 -17 -17 -17 -17 -17 -17 -17 -16 -16 -16
-20 -20 -20 -20 -20 -19 -19 -19 -19 -18 -18 -18 -18 -17 -17 -17 -17 -17 -17 -17 -17 -16 -18 -18 -18 -18 -18
-20 -19 -19 -19 -20 -19 -19 -19 -18 -19 -18 -18 -18 -17 -18 -18 -18 -18 -18 -18 -19 -19 -19 -19 -19 -19 -19
-19 -19 -18 -18 -19 -19 -19 -18 -18 -19 -18 -18 -18 -18 -19 -19 -19 -19 -19 -19 -19 -19 -19 -19 -19 -19 -19
-19 -19 -19 -18 -18 -19 -19 -19 -19 -19 -19 -19 -19 -19 -20 -20 -20 -19 -19 -19 -20 -20 -20 -20 -20 -19 -19
-19 -19 -19 -19 -19 -19 -19 -20 -20 -20 -20 -20 -20 -20 -20 -20 -20 -20 -20 -20 -20 -20 -20 -20 -20 -20 -20
-19 -19 -19 -19 -19 -19 -19 -19 -20 -20 -20 -20 -20 -20 -21 -21 -21 -21 -21 -21 -21 -21 -21 -21 -21 -21 -21
-19 -19 -19 -19 -19 -20 -20 -20 -20 -20 -21 -21 -21 -21 -21 -21 -22 -22 -22 -22 -22 -22 -23 -23 -24 -24 -24
-19 -19 -19 -20 -20 -20 -20 -20 -21 -21 -21 -21 -21 -22 -22 -22 -22 -23 -23 -23 -24 -24 -25 -25 -25 -25 -25
-19 -19 -19 -20 -20 -20 -20 -21 -21 -21 -21 -21 -22 -22 -23 -23 -24 -24 -25 -25 -26 -26 -26 -26 -26 -26 -26
-19 -20 -20 -20 -21 -21 -21 -21 -21 -21 -21 -22 -23 -23 -23 -24 -26 -26 -27 -27 -27 -27 -27 -27 -27 -26 -26
-20 -20 -20 -21 -21 -21 -21 -21 -21 -22 -23 -23 -23 -23 -24 -26 -27 -28 -28 -28 -28 -28 -28 -27 -27 -27 -27
-20 -20 -21 -21 -21 -22 -22 -21 -22 -23 -23 -23 -23 -24 -25 -26 -28 -29 -29 -29 -29 -28 -28 -28 -28 -27 -27
-21 -21 -21 -21 -22 -22 -22 -22 -23 -24 -24 -24 -24 -24 -26 -27 -28 -29 -29 -29 -29 -29 -29 -28 -28 -28 -28
-21 -21 -21 -22 -22 -22 -22 -23 -24 -24 -24 -24 -24 -24 -25 -27 -29 -29 -30 -30 -30 -30 -29 -29 -29 -29 -28
-21 -21 -22 -22 -23 -23 -23 -23 -24 -24 -24 -24 -24 -25 -25 -28 -29 -29 -30 -30 -30 -30 -29 -29 -29 -29 -29
-22 -22 -22 -23 -23 -23 -23 -23 -24 -25 -25 -25 -25 -25 -26 -27 -29 -30 -30 -30 -30 -29 -29 -29 -28 -29 -29

GFSFLT2_500_temp_051.txt.gz
Temp
-17 -16 -16 -16 -16 -16 -17 -17 -17 -18 -18 -18 -19 -19 -19 -19 -18 -18 -18 -18 -17 -18 -17 -17 -17 -17 -17
-17 -16 -17 -16 -16 -16 -17 -17 -17 -17 -18 -18 -18 -18 -18 -18 -18 -18 -18 -18 -18 -18 -18 -17 -17 -17 -17
-17 -17 -17 -17 -17 -17 -18 -18 -18 -18 -18 -18 -18 -18 -18 -18 -19 -19 -19 -18 -18 -18 -18 -18 -18 -18 -18
-17 -17 -17 -17 -18 -18 -18 -18 -18 -18 -18 -19 -19 -19 -19 -19 -19 -19 -19 -19 -19 -19 -19 -19 -19 -19 -19
-17 -17 -17 -18 -18 -18 -18 -18 -18 -18 -19 -19 -19 -19 -19 -19 -19 -19 -20 -20 -20 -20 -20 -20 -20 -20 -20
-17 -18 -18 -18 -18 -18 -18 -18 -18 -19 -19 -19 -19 -19 -19 -20 -20 -20 -20 -20 -20 -20 -20 -20 -20 -20 -20
-18 -18 -18 -18 -18 -18 -18 -18 -18 -19 -19 -19 -19 -20 -20 -20 -20 -20 -21 -21 -21 -21 -21 -21 -21 -21 -21
-18 -18 -18 -18 -18 -18 -18 -19 -19 -19 -19 -20 -20 -20 -20 -21 -21 -21 -21 -21 -21 -21 -21 -22 -22 -22 -22
-18 -18 -19 -19 -19 -19 -19 -19 -19 -19 -20 -20 -20 -20 -20 -21 -21 -21 -21 -21 -21 -22 -22 -23 -23 -23 -23
-19 -19 -19 -19 -19 -19 -19 -19 -20 -20 -20 -21 -21 -21 -21 -21 -21 -22 -22 -22 -22 -22 -23 -23 -23 -23 -24
-19 -19 -19 -19 -20 -20 -20 -20 -20 -20 -21 -21 -21 -21 -22 -22 -22 -22 -22 -22 -23 -23 -24 -24 -24 -24 -24
-19 -20 -20 -20 -20 -20 -20 -21 -21 -21 -21 -22 -22 -22 -22 -23 -23 -23 -23 -23 -23 -24 -24 -24 -24 -24 -25
-20 -20 -20 -20 -20 -21 -21 -21 -21 -22 -22 -22 -22 -23 -23 -23 -23 -24 -24 -24 -24 -25 -25 -25 -25 -25 -25
-20 -21 -21 -21 -21 -21 -21 -22 -22 -22 -23 -23 -23 -23 -23 -24 -24 -24 -24 -25 -25 -25 -25 -25 -25 -25 -26
-21 -21 -21 -21 -21 -22 -22 -23 -23 -23 -23 -23 -23 -24 -24 -24 -24 -25 -25 -26 -25 -26 -26 -26 -26 -26 -26
-21 -21 -22 -22 -22 -22 -23 -23 -23 -24 -24 -24 -24 -24 -24 -24 -25 -25 -26 -26 -26 -26 -26 -26 -27 -28 -27
-22 -22 -22 -22 -23 -23 -23 -24 -24 -24 -25 -24 -24 -24 -24 -25 -26 -27 -27 -27 -27 -27 -27 -27 -28 -28 -28

GFSFLT2_500_temp_057.txt.gz
Temp
-16 -16 -16 -16 -17 -17 -17 -17 -17 -16 -17 -17 -17 -17 -17 -18 -18 -18 -18 -18 -19 -19 -18 -18 -18 -18 -17
-16 -16 -16 -17 -17 -17 -17 -17 -17 -17 -17 -17 -17 -17 -18 -18 -18 -18 -18 -18 -18 -18 -18 -18 -18 -18 -18
-16 -17 -17 -17 -17 -17 -17 -17 -17 -17 -17 -17 -17 -18 -18 -18 -18 -18 -18 -18 -18 -18 -19 -19 -18 -19 -18
-17 -17 -17 -17 -17 -17 -17 -17 -17 -17 -17 -17 -18 -18 -18 -18 -18 -18 -18 -18 -18 -18 -18 -18 -18 -18 -18
-17 -17 -17 -18 -18 -18 -17 -17 -18 -18 -18 -18 -18 -18 -18 -18 -18 -18 -18 -18 -19 -19 -19 -19 -19 -18 -18
-17 -18 -18 -18 -18 -18 -18 -18 -18 -18 -18 -18 -18 -18 -18 -19 -19 -19 -19 -19 -19 -19 -19 -19 -19 -20 -20
-18 -18 -18 -18 -18 -18 -18 -18 -18 -18 -19 -19 -19 -19 -19 -19 -19 -19 -19 -19 -19 -19 -19 -19 -19 -20 -20
-18 -18 -18 -18 -18 -18 -18 -19 -19 -19 -19 -19 -19 -19 -20 -20 -19 -19 -20 -20 -20 -20 -20 -20 -20 -20 -20
-18 -18 -18 -18 -18 -19 -19 -19 -19 -19 -20 -20 -20 -20 -20 -20 -20 -20 -20 -20 -20 -20 -21 -21 -21 -21 -21
-18 -18 -18 -19 -19 -19 -19 -19 -20 -20 -20 -20 -20 -20 -21 -21 -21 -21 -21 -21 -21 -22 -22 -22 -22 -22 -22
-18 -18 -18 -19 -19 -19 -19 -20 -20 -20 -20 -21 -21 -21 -21 -21 -22 -22 -22 -22 -23 -23 -23 -23 -23 -23 -23
-19 -19 -19 -19 -19 -19 -20 -20 -20 -21 -21 -21 -21 -21 -21 -22 -23 -23 -24 -24 -24 -24 -24 -24 -24 -24 -24
-19 -19 -20 -20 -20 -20 -20 -20 -21 -21 -21 -21 -21 -22 -22 -23 -23 -24 -24 -24 -24 -24 -24 -24 -24 -24 -24
-20 -20 -20 -20 -20 -20 -21 -21 -21 -21 -22 -22 -22 -22 -23 -24 -24 -24 -24 -24 -24 -24 -24 -24 -24 -24 -24
-20 -20 -20 -20 -20 -21 -21 -21 -22 -22 -22 -22 -23 -23 -24 -24 -24 -24 -25 -25 -24 -24 -24 -25 -25 -26 -26
-20 -20 -20 -21 -21 -21 -22 -22 -22 -22 -23 -23 -23 -23 -24 -24 -24 -25 -25 -24 -24 -25 -25 -26 -26 -26 -26
-21 -21 -21 -21 -21 -22 -22 -22 -22 -23 -23 -23 -23 -23 -24 -24 -25 -25 -25 -25 -25 -25 -26 -26 -26 -27 -27

GFSFLT2_500_temp_060.txt.gz
Temp
-15 -15 -15 -15 -16 -16 -16 -17 -17 -17 -17 -17 -17 -17 -17 -17 -17 -17 -17 -17 -17 -18 -18 -19 -19 -19 -19
-15 -16 -16 -16 -16 -17 -17 -17 -17 -17 -17 -17 -17 -17 -17 -17 -17 -18 -18 -18 -18 -18 -18 -18 -19 -18 -19
-16 -16 -16 -17 -17 -17 -17 -17 -17 -17 -17 -17 -17 -17 -17 -18 -18 -18 -18 -18 -18 -18 -18 -18 -18 -18 -18
-16 -17 -17 -17 -17 -17 -17 -18 -18 -18 -17 -17 -17 -18 -18 -18 -18 -18 -18 -18 -18 -18 -19 -19 -19 -18 -18
-17 -17 -17 -17 -17 -17 -18 -18 -18 -18 -18 -18 -18 -18 -18 -18 -18 -18 -19 -19 -19 -19 -19 -19 -19 -19 -19
-17 -17 -17 -17 -17 -18 -18 -18 -18 -18 -18 -18 -18 -18 -19 -19 -19 -19 -19 -19 -19 -19 -19 -19 -19 -19 -19
-18 -17 -18 -18 -18 -18 -18 -18 -18 -18 -19 -19 -19 -19 -19 -19 -19 -20 -20 -20 -20 -20 -20 -20 -19 -19 -20
-18 -18 -18 -18 -18 -18 -18 -18 -19 -19 -19 -19 -19 -20 -20 -20 -20 -20 -20 -20 -20 -20 -20 -20 -20 -20 -20
-18 -18 -18 -18 -18 -18 -18 -18 -19 -19 -19 -19 -20 -20 -20 -20 -20 -20 -20 -20 -20 -21 -21 -21 -21 -21 -21
-18 -18 -18 -18 -18 -18 -19 -19 -19 -19 -19 -20 -20 -21 -21 -21 -21 -21 -21 -21 -21 -21 -22 -23 -23 -23 -23
-18 -18 -18 -18 -18 -19 -19 -19 -20 -20 -20 -20 -20 -21 -21 -21 -21 -21 -21 -22 -22 -23 -24 -24 -24 -24 -24
-18 -18 -18 -19 -19 -19 -20 -20 -20 -20 -21 -21 -21 -21 -21 -22 -22 -22 -22 -22 -23 -24 -24 -24 -24 -24 -24
-19 -19 -19 -19 -20 -20 -20 -20 -20 -20 -21 -21 -21 -22 -22 -22 -22 -22 -23 -23 -24 -24 -24 -24 -24 -24 -24
-19 -20 -20 -20 -20 -20 -20 -20 -21 -21 -21 -21 -22 -22 -22 -22 -23 -23 -23 -24 -24 -24 -24 -24 -25 -24 -24
-20 -20 -20 -21 -21 -21 -20 -21 -21 -21 -22 -22 -22 -22 -22 -23 -23 -23 -24 -24 -24 -24 -25 -25 -25 -25 -25
-20 -21 -21 -21 -21 -21 -21 -21 -22 -22 -22 -22 -22 -22 -23 -23 -24 -24 -24 -24 -24 -25 -25 -25 -25 -25 -26
-21 -21 -21 -21 -21 -21 -21 -22 -22 -22 -22 -22 -22 -23 -23 -23 -24 -25 -25 -25 -25 -25 -25 -25 -25 -26 -26